STARLINK-6084 (56111 NORAD) Tracking and Keplerian Element Data

This shows tracking and keplerian element data for the satellite.

Feedback or suggestion? Click here.




ElementValue
Catalog56111
NameSTARLINK-6084
Epoch Orbit652
Epoch Day127.25001157
Epoch Year2023
RAAN37.6113
Inclination43.0015
Eccentricity0.0001404
Argument of Perigee278.0752
Mean Anonmoly182.1007
Mean Motion15.31264751
Decay Rate-0.00896738
L11 56111U 23046U 23127.25001157 -.00896738 00000+0 -31688-1 0 9994
L22 56111 43.0015 37.6113 0001404 278.0752 182.1007 15.31264751 6527



Live tracking and technical data element details for STARLINK-6084 (NORAD 56111). STARLINK-6084 can be tracked NOW for your location showing map with azimuth and elevation plus other details from your city location.







IsCatalogInMostPopularTable: catalog: 56111, numindb: 2
Update: records affected: 1



GetName: 56111 STARLINK-6084

Hit Count: updated at: Sat, 03 Jun 2023 17:57:05 GMT